Flag for Ireland Weather past 2 weeks in Cork, Ireland

Now
49 °F

Passing clouds.


Feels Like: 46 °F
Forecast: 37 / 58 °F
Wind: 7 mph from East

Location: Cork Airport

Current Time: Apr 19, 2015 at 11:36:53 AM

Latest Report: Apr 19, 2015 at 10:00 AM


Visibility: 25 mi

Pressure: 30.31 "Hg

Humidity: 80%

Dew point: 43 °F

Location of CorkLocation

Historic Weather in Cork — Graph

°F

Cork temperature yesterday

Maximum temperature yesterday: 50 °F (at 4:00 PM)
Minimum temperature yesterday: 46 °F (at 8:00 AM)
Average temperature yesterday: 48 °F

Past Weeks' High & Low Weather Summary

 TemperatureHumidityPressure
High60 °F (Apr 7, 1:00 PM)100% (Apr 5, 12:00 AM)30.65 "Hg (Apr 5, 12:00 AM)
Low36 °F (Apr 11, 7:00 AM)49% (Apr 11, 3:00 PM)29.76 "Hg (Apr 10, 10:00 PM)
Average48 °F84%30.24 "Hg
* Reported Apr 4 10:00 AM — Apr 19 10:00 AM, Cork, Weather by CustomWeather, © 2015

Note: Actual official high and low records may vary slightly from our data, if they occured in-between our weather recording intervals... More about our weather records

Advertising

Cork weather history for previous 24 hours

 ConditionsComfort  
Time TempWeatherWind HumidityBarometerVisibility
10:00 AM
Sun, Apr 19
49 °FPassing clouds.7 mph80%30.31 "Hg25 mi
9:00 AM47 °FPassing clouds.6 mph88%30.31 "Hg19 mi
8:00 AM45 °FPassing clouds.6 mph94%30.30 "Hg25 mi
7:00 AM42 °FPassing clouds.5 mph93%30.32 "Hg19 mi
6:00 AM43 °FPassing clouds.5 mph89%30.30 "Hg19 mi
5:00 AM44 °FClear.3 mph89%30.30 "Hg19 mi
3:00 AM46 °FClear.6 mph84%30.31 "Hg19 mi
2:00 AM46 °FPassing clouds.3 mph81%30.32 "Hg19 mi
1:00 AM46 °FPassing clouds.7 mph78%30.31 "Hg19 mi
12:00 AM46 °FPassing clouds.7 mph70%30.32 "Hg19 mi
11:00 PM
Sat, Apr 18
46 °FPassing clouds.7 mph67%30.31 "Hg25 mi
10:00 PM47 °FPassing clouds.7 mph65%30.31 "Hg31 mi
9:00 PM47 °FPassing clouds.7 mph69%30.30 "Hg37 mi
8:00 PM49 °FPassing clouds.8 mph60%30.29 "Hg37 mi
7:00 PM50 °FPassing clouds.10 mph59%30.28 "Hg37 mi
6:00 PM50 °FPassing clouds.12 mph62%30.27 "Hg37 mi
5:00 PM50 °FPassing clouds.10 mph63%30.28 "Hg37 mi
4:00 PM50 °FPassing clouds.10 mph65%30.28 "Hg37 mi
3:00 PM49 °FScattered clouds.13 mph70%30.30 "Hg37 mi
2:00 PM49 °FScattered clouds.13 mph70%30.30 "Hg37 mi
1:00 PM47 °FPartly sunny.12 mph72%30.31 "Hg31 mi
12:00 PM50 °FPartly sunny.12 mph74%30.30 "Hg31 mi
11:00 AM50 °FPartly sunny.12 mph78%30.29 "Hg31 mi
Weather by CustomWeather, © 2015

See weather overviewHow to use our weather pages